FW1310 Weather Reports


time (UTC)temp
F
wind
direction
speed
knots
gust
knots
rain 1hr
in
rain 24hr
in
rain mn
in
humidity
%
barometer
mb
20260508085004 60 193 0.0 0.0 0.00 0.00 0.00 81 999.9
20260508084504 60 190 0.0 0.0 0.00 0.00 0.00 82 999.9
20260508083004 60 205 0.0 0.0 0.00 0.00 0.00 82 1000.0
20260508082004 60 211 0.0 0.0 0.00 0.00 0.00 82 1000.0
20260508081504 60 198 0.0 0.0 0.00 0.00 0.00 83 999.9
20260508081004 60 212 0.0 0.0 0.00 0.00 0.00 83 1000.0
20260508080004 60 166 0.0 0.0 0.00 0.00 0.00 84 999.7
20260508075505 59 198 0.0 0.0 0.00 0.00 0.00 84 999.9
20260508075004 59 187 0.0 0.9 0.00 0.00 0.00 84 999.8
20260508074504 59 166 0.0 1.7 0.00 0.00 0.00 84 999.7
20260508074004 59 183 0.0 0.0 0.00 0.00 0.00 85 999.7
20260508073504 59 209 0.0 0.0 0.00 0.00 0.00 85 999.8
20260508073004 59 189 0.9 1.7 0.00 0.00 0.00 85 999.7
20260508072504 59 172 0.9 1.7 0.00 0.00 0.00 86 1000.0
20260508071503 58 172 0.0 0.0 0.00 0.00 0.00 87 1000.0
20260508070503 58 119 0.0 0.9 0.00 0.00 0.00 86 1000.1
20260508070004 58 103 0.0 0.9 0.00 0.00 0.00 86 1000.3
20260508064503 58 137 0.0 0.0 0.00 0.00 0.00 87 1000.5
20260508064003 58 152 0.0 0.0 0.00 0.00 0.00 88 1000.7
20260508063503 58 178 0.0 0.0 0.00 0.00 0.00 88 1000.7
20260508063003 58 181 0.0 0.0 0.00 0.00 0.00 88 1000.7
20260508062504 58 190 0.0 0.0 0.00 0.00 0.00 88 1000.9
20260508062003 58 191 0.0 0.0 0.00 0.00 0.00 88 1000.8
20260508061503 58 142 0.0 0.0 0.00 0.00 0.00 87 1000.9
20260508061003 58 142 0.0 0.0 0.00 0.00 0.00 87 1000.9
20260508060505 58 129 0.0 0.0 0.00 0.00 0.00 86 1001.1
20260508060005 58 74 0.0 0.0 0.00 0.00 0.00 86 1001.0
20260508055504 58 90 0.0 0.0 0.00 0.00 0.00 86 1000.8
20260508055004 58 131 0.0 0.0 0.00 0.00 0.00 86 1000.9
20260508054504 58 189 0.0 0.0 0.00 0.00 0.00 86 1000.4
20260508054003 58 160 0.0 0.0 0.00 0.00 0.00 86 1000.6
20260508053503 58 158 0.0 0.0 0.00 0.00 0.00 86 1000.6
20260508053004 58 200 0.0 0.0 0.00 0.00 0.00 86 1000.5
20260508052504 58 126 0.0 0.0 0.00 0.00 0.00 87 1000.8
20260508052004 58 79 0.0 0.0 0.00 0.00 0.00 86 1001.0
20260508051504 59 154 0.0 0.0 0.00 0.00 0.00 86 1000.6
20260508050504 59 115 0.0 0.9 0.00 0.00 0.00 86 1000.7
20260508050004 59 181 0.0 0.9 0.00 0.00 0.00 86 1000.7
20260508045504 59 121 0.0 0.9 0.00 0.00 0.00 86 1001.0
20260508045004 59 133 0.0 0.0 0.00 0.00 0.00 86 1000.9
20260508044004 59 141 0.0 0.0 0.00 0.00 0.00 85 1001.4
20260508043503 59 108 0.0 0.9 0.00 0.00 0.00 85 1001.3
20260508043004 59 107 0.0 0.0 0.00 0.00 0.00 85 1001.2
20260508042503 59 152 0.0 0.0 0.00 0.00 0.00 84 1001.0
20260508042004 59 111 0.0 0.0 0.00 0.00 0.00 84 1001.0
20260508041004 59 223 0.0 0.0 0.00 0.00 0.00 84 1001.1
20260508040503 59 219 0.0 0.0 0.00 0.00 0.00 85 1001.2
20260508040004 59 131 0.0 0.0 0.00 0.00 0.00 85 1001.3
20260508035504 59 156 0.0 0.0 0.00 0.00 0.00 84 1001.1
20260508035004 59 178 0.0 0.0 0.00 0.00 0.00 84 1001.3
20260508034004 59 142 0.0 0.0 0.00 0.00 0.00 84 1001.7
20260508033504 59 112 0.0 0.0 0.00 0.00 0.00 84 1001.9
20260508033004 60 198 0.0 0.0 0.00 0.00 0.00 83 1001.6
20260508032503 60 255 0.0 0.0 0.00 0.00 0.00 83 1001.6
20260508032003 60 259 0.0 0.0 0.00 0.00 0.00 83 1001.3
20260508031503 60 232 0.0 0.0 0.00 0.00 0.00 82 1001.5
20260508031004 60 112 0.0 1.7 0.00 0.00 0.00 82 1001.7
20260508030503 60 68 0.0 0.0 0.00 0.00 0.00 81 1001.6
20260508030004 60 82 0.0 0.0 0.00 0.00 0.00 80 1001.0
20260508025503 61 181 0.0 0.0 0.00 0.00 0.00 80 1000.5
20260508025004 61 180 0.0 0.0 0.00 0.00 0.00 80 1000.5
20260508024504 61 192 0.0 0.0 0.00 0.00 0.00 80 1000.4
20260508024004 61 105 0.0 0.0 0.00 0.00 0.00 79 1000.5
20260508023503 61 161 0.0 0.0 0.00 0.00 0.00 79 1000.5
20260508023004 61 180 0.0 0.0 0.00 0.00 0.00 79 1000.0
20260508022003 61 188 0.9 2.6 0.00 0.00 0.00 78 999.7
20260508021504 61 163 0.9 1.7 0.00 0.00 0.00 78 999.7
20260508021004 61 170 0.0 1.7 0.00 0.00 0.00 78 999.7
20260508020504 61 174 0.0 0.0 0.00 0.00 0.00 78 999.7
20260508020004 61 174 0.0 0.0 0.00 0.00 0.00 77 999.8
20260508015504 62 173 0.0 0.9 0.00 0.00 0.00 77 999.6
20260508014504 62 182 0.0 1.7 0.00 0.00 0.00 76 999.7
20260508014004 62 203 0.9 1.7 0.00 0.00 0.00 75 999.7
20260508013004 62 172 1.7 2.6 0.00 0.00 0.00 74 999.9
20260508012504 62 133 0.9 2.6 0.00 0.00 0.00 74 999.7
20260508012004 62 194 0.9 2.6 0.00 0.00 0.00 74 999.7
20260508011504 62 174 0.0 2.6 0.00 0.00 0.00 74 999.4
20260508011005 63 180 0.9 2.6 0.00 0.00 0.00 73 999.4
20260508010004 63 176 1.7 2.6 0.00 0.00 0.00 73 999.8
20260508005504 63 174 0.9 2.6 0.00 0.00 0.00 72 1000.1
20260508005004 64 188 0.9 1.7 0.00 0.00 0.00 72 1000.3
20260508004504 64 225 0.0 0.9 0.00 0.00 0.00 72 1000.3
20260508004004 64 161 0.0 0.0 0.00 0.00 0.00 71 1000.7
20260508003005 64 168 0.0 2.6 0.00 0.00 0.00 70 1000.4
20260508002504 65 197 1.7 2.6 0.00 0.00 0.00 68 1000.2
20260508002004 65 218 0.0 0.0 0.00 0.00 0.00 68 1000.4
20260508001503 65 187 0.9 2.6 0.00 0.00 0.00 67 1000.7
20260508001004 65 188 0.9 1.7 0.00 0.00 0.00 67 1000.6
20260508000504 65 222 0.0 0.9 0.00 0.00 0.00 67 1000.9
20260508000004 65 170 0.0 0.0 0.00 0.00 0.00 66 1000.9
20260507235504 65 191 0.9 1.7 0.00 0.00 0.00 65 1001.0
20260507235004 66 205 0.0 0.0 0.00 0.00 0.00 65 1001.2
20260507234504 66 77 0.0 2.6 0.00 0.00 0.00 64 1001.5
20260507234004 66 92 0.0 1.7 0.00 0.00 0.00 64 1001.5
20260507233504 66 83 0.9 1.7 0.00 0.00 0.00 63 1001.4
20260507233004 66 147 0.0 0.0 0.00 0.00 0.00 64 1001.3
20260507232504 66 126 0.0 0.0 0.00 0.00 0.00 64 1001.2
20260507232004 66 186 0.9 2.6 0.00 0.00 0.00 63 1000.9
20260507231503 66 163 0.9 5.2 0.00 0.00 0.00 63 1000.5
20260507231004 66 158 1.7 2.6 0.00 0.00 0.00 62 1000.5
20260507230504 66 170 0.9 2.6 0.00 0.00 0.00 63 1000.8
20260507230004 66 182 0.0 0.9 0.00 0.00 0.00 63 1001.0
20260507225504 66 174 0.9 2.6 0.00 0.00 0.00 65 1000.9
20260507225004 66 182 0.9 2.6 0.00 0.00 0.00 63 1000.9
20260507224504 65 189 1.7 5.2 0.00 0.00 0.00 64 1001.2
20260507223504 66 174 0.0 0.0 0.00 0.00 0.00 64 1001.4
20260507223004 66 308 0.0 0.9 0.00 0.00 0.00 65 1001.7
20260507222504 65 184 0.0 0.9 0.00 0.00 0.00 65 1001.4
20260507222004 65 153 0.0 0.0 0.00 0.00 0.00 66 1001.5
20260507221504 65 139 0.9 2.6 0.00 0.00 0.00 65 1001.4
20260507221004 65 188 0.9 1.7 0.00 0.00 0.00 65 1001.7
20260507220503 66 99 0.0 0.9 0.00 0.00 0.00 66 1001.7
20260507220004 65 129 0.0 2.6 0.00 0.00 0.00 66 1001.6
20260507215504 65 39 0.9 2.6 0.00 0.00 0.00 66 1001.9
20260507215003 64 52 1.7 4.3 0.00 0.00 0.00 67 1002.1
20260507214504 65 100 0.9 2.6 0.00 0.00 0.00 67 1002.1
20260507214004 65 140 0.9 4.3 0.00 0.00 0.00 66 1002.1
20260507213504 64 87 2.6 5.2 0.00 0.00 0.00 67 1002.3
20260507212004 65 67 1.7 5.2 0.00 0.00 0.00 67 1002.0
20260507211505 65 102 0.9 4.3 0.00 0.00 0.00 67 1002.1
20260507211004 65 110 0.9 4.3 0.00 0.00 0.00 66 1002.0
20260507210504 65 123 0.9 0.9 0.00 0.00 0.00 66 1001.9
20260507210004 65 35 1.7 2.6 0.00 0.00 0.00 66 1001.8
20260507205504 65 184 0.9 1.7 0.00 0.00 0.00 65 1001.6
20260507205004 65 174 1.7 2.6 0.00 0.00 0.00 65 1001.8
20260507204504 65 142 2.6 4.3 0.00 0.00 0.00 65 1002.0
20260507204004 65 198 0.9 4.3 0.00 0.00 0.00 66 1002.2
20260507203504 65 190 2.6 5.2 0.00 0.00 0.00 66 1002.1
20260507203004 65 196 0.9 5.2 0.00 0.00 0.00 67 1002.4
20260507202504 65 141 0.9 2.6 0.00 0.00 0.00 66 1002.4
20260507202004 65 230 2.6 4.3 0.00 0.00 0.00 67 1002.2
20260507201505 65 155 0.9 1.7 0.00 0.00 0.00 66 1002.9
20260507201004 64 150 0.0 0.9 0.00 0.00 0.00 68 1002.9
20260507200004 64 122 1.7 4.3 0.00 0.00 0.00 68 1002.1
20260507195504 64 107 0.9 2.6 0.00 0.00 0.00 68 1002.4
20260507195004 64 188 0.9 4.3 0.00 0.00 0.00 68 1002.6
20260507194504 64 111 0.0 0.9 0.00 0.00 0.00 68 1002.8
20260507193504 64 78 1.7 2.6 0.00 0.00 0.00 67 1003.3
20260507193004 65 133 0.9 2.6 0.00 0.00 0.00 67 1003.3
20260507192504 64 87 0.9 2.6 0.00 0.00 0.00 68 1003.6
20260507192004 64 46 0.0 0.9 0.00 0.00 0.00 68 1003.4
20260507191504 64 96 0.0 4.3 0.00 0.00 0.00 68 1003.2
20260507191004 65 187 2.6 4.3 0.00 0.00 0.00 68 1003.1
20260507190504 64 167 0.0 2.6 0.00 0.00 0.00 68 1003.2
20260507190005 64 197 2.6 5.2 0.00 0.00 0.00 69 1002.9
20260507185504 64 195 1.7 5.2 0.00 0.00 0.00 70 1002.6
20260507184504 63 148 0.9 2.6 0.00 0.00 0.00 71 1003.1
20260507184004 63 288 2.6 6.1 0.00 0.00 0.00 72 1002.8
20260507183504 62 155 2.6 4.3 0.00 0.00 0.00 71 1002.6
20260507183004 63 61 1.7 7.0 0.00 0.00 0.00 70 1002.7
20260507182504 63 195 2.6 7.0 0.00 0.00 0.00 70 1002.9
20260507181504 63 186 1.7 4.3 0.00 0.00 0.00 70 1003.0
20260507181004 63 184 1.7 5.2 0.00 0.00 0.00 70 1003.2
20260507180503 63 159 2.6 5.2 0.00 0.00 0.00 70 1003.1
20260507180004 64 66 1.7 2.6 0.00 0.00 0.00 70 1003.4
20260507175504 63 164 0.9 5.2 0.00 0.00 0.00 70 1003.7
20260507175004 63 204 3.5 5.2 0.00 0.00 0.00 69 1004.0
20260507174504 63 93 1.7 5.2 0.00 0.00 0.00 71 1003.8
20260507174004 63 127 0.9 4.3 0.00 0.00 0.00 71 1003.4
20260507173504 62 190 1.7 7.0 0.00 0.00 0.00 73 1003.1
20260507173004 62 164 4.3 7.0 0.00 0.00 0.00 74 1002.6
20260507172504 62 190 1.7 6.1 0.00 0.00 0.00 75 1003.2
20260507172004 61 121 0.9 2.6 0.00 0.00 0.00 78 1003.3
20260507171504 60 47 1.7 5.2 0.00 0.00 0.00 79 1003.5
20260507171004 60 69 1.7 5.2 0.00 0.00 0.00 80 1003.8
20260507170504 60 120 1.7 4.3 0.00 0.00 0.00 82 1003.5
20260507170004 59 173 0.9 4.3 0.00 0.00 0.00 83 1003.1
20260507165504 59 170 1.7 5.2 0.00 0.00 0.00 84 1002.8
20260507165004 59 152 1.7 4.3 0.00 0.00 0.00 84 1002.9
20260507164504 59 149 0.9 2.6 0.00 0.00 0.00 84 1003.2
20260507164004 58 355 1.7 4.3 0.00 0.00 0.00 83 1003.9
20260507163504 59 30 1.7 2.6 0.00 0.00 0.00 82 1003.7
20260507163004 59 126 1.7 2.6 0.00 0.00 0.00 82 1004.3
20260507162504 59 133 0.9 2.6 0.00 0.00 0.00 80 1004.8
20260507162004 59 180 1.7 2.6 0.00 0.00 0.00 79 1004.9
20260507161504 59 226 0.0 2.6 0.00 0.00 0.00 80 1005.3
20260507161004 58 77 1.7 5.2 0.00 0.00 0.00 81 1005.1
20260507160503 59 128 2.6 5.2 0.00 0.00 0.00 81 1004.9
20260507155504 59 78 1.7 2.6 0.00 0.00 0.00 82 1004.3
20260507155004 58 103 1.7 2.6 0.00 0.00 0.00 83 1004.4
20260507154504 59 77 0.9 4.3 0.00 0.00 0.00 83 1004.5
20260507153504 58 196 0.9 2.6 0.00 0.00 0.00 82 1004.6
20260507152504 58 211 0.9 2.6 0.00 0.00 0.00 84 1004.2
20260507152004 58 134 0.9 4.3 0.00 0.00 0.00 84 1004.5
20260507151504 58 141 0.9 2.6 0.00 0.00 0.00 84 1004.8
20260507151004 58 119 1.7 4.3 0.00 0.00 0.00 85 1004.4
20260507150504 58 109 1.7 4.3 0.00 0.00 0.00 86 1003.8
20260507150005 58 121 1.7 4.3 0.00 0.00 0.00 86 1004.5
20260507145503 58 350 1.7 5.2 0.00 0.00 0.00 86 1004.8
20260507145004 58 95 1.7 5.2 0.00 0.00 0.00 86 1004.5
20260507144504 57 98 1.7 5.2 0.00 0.00 0.00 87 1003.6
20260507144004 57 131 2.6 4.3 0.00 0.00 0.00 87 1003.8
20260507143504 57 99 2.6 6.1 0.00 0.00 0.00 88 1004.2
20260507143004 57 71 1.7 5.2 0.00 0.00 0.00 88 1004.0
20260507142504 56 105 2.6 7.0 0.00 0.00 0.00 88 1004.0
20260507142004 56 131 1.7 5.2 0.00 0.00 0.00 89 1004.3
20260507141504 56 187 1.7 5.2 0.00 0.00 0.00 90 1004.0
20260507140503 56 139 2.6 4.3 0.00 0.00 0.00 90 1004.1
20260507140004 56 107 0.9 5.2 0.00 0.00 0.00 91 1004.0
20260507135504 56 149 0.9 1.7 0.00 0.00 0.00 91 1003.9
20260507135004 56 80 1.7 4.3 0.00 0.00 0.00 91 1004.0
20260507134504 56 116 1.7 4.3 0.00 0.00 0.00 92 1003.7
20260507134004 56 119 1.7 4.3 0.00 0.00 0.00 92 1003.6
20260507133004 56 72 2.6 5.2 0.00 0.00 0.00 92 1003.3
20260507132004 56 77 0.9 5.2 0.00 0.00 0.00 92 1003.6
20260507131504 56 167 1.7 7.0 0.00 0.00 0.00 92 1003.5
20260507131004 56 103 2.6 7.0 0.00 0.00 0.00 92 1003.4
20260507130504 56 90 1.7 4.3 0.00 0.00 0.00 92 1003.7
20260507125504 55 27 2.6 5.2 0.00 0.00 0.00 92 1003.6
20260507125004 55 251 0.9 2.6 0.00 0.00 0.00 92 1003.7
20260507124503 55 70 1.7 5.2 0.00 0.00 0.00 92 1003.5
20260507123504 55 52 0.9 6.1 0.00 0.00 0.00 92 1003.6
20260507122504 55 172 2.6 6.1 0.00 0.00 0.00 92 1003.3
20260507121504 55 130 3.5 8.7 0.00 0.00 0.00 92 1003.4
20260507121004 55 140 1.7 11.3 0.00 0.00 0.00 92 1003.1
20260507120503 56 72 3.5 11.3 0.00 0.00 0.00 91 1003.1
20260507120004 56 135 1.7 4.3 0.00 0.00 0.00 91 1002.9
20260507115504 56 222 1.7 6.1 0.00 0.00 0.00 91 1002.6
20260507114503 56 53 1.7 5.2 0.00 0.00 0.00 91 1002.7
20260507113504 56 47 4.3 7.8 0.00 0.00 0.00 91 1003.1
20260507113004 56 84 1.7 5.2 0.00 0.00 0.00 91 1003.1
20260507112003 56 109 1.7 4.3 0.00 0.00 0.00 90 1002.9
20260507111504 56 45 2.6 7.0 0.00 0.00 0.00 90 1002.7
20260507111004 56 71 1.7 4.3 0.00 0.00 0.00 90 1002.6
20260507110504 56 114 1.7 2.6 0.00 0.00 0.00 90 1002.7
20260507110004 56 0 0.9 2.6 0.00 0.00 0.00 90 1002.7
20260507105504 56 199 1.7 7.0 0.00 0.00 0.00 90 1002.7
20260507105004 56 63 1.7 4.3 0.00 0.00 0.00 89 1002.7
20260507104504 56 144 2.6 6.1 0.00 0.00 0.00 89 1002.8
20260507104004 56 59 0.9 5.2 0.00 0.00 0.00 89 1003.0
20260507103504 57 63 4.3 10.4 0.00 0.00 0.00 89 1002.8
20260507103004 57 63 1.7 4.3 0.00 0.00 0.00 89 1002.4
20260507102504 57 154 1.7 6.1 0.00 0.00 0.00 89 1002.3
20260507101004 57 167 0.9 4.3 0.00 0.00 0.00 89 1002.6
20260507100504 57 98 2.6 6.1 0.00 0.00 0.00 89 1002.4
20260507100005 57 176 2.6 5.2 0.00 0.00 0.00 89 1002.2
20260507095504 57 35 1.7 2.6 0.00 0.00 0.00 89 1002.3
20260507095004 57 93 0.9 4.3 0.00 0.00 0.00 89 1002.4
20260507094504 57 202 1.7 4.3 0.00 0.00 0.00 88 1002.4
20260507094004 57 87 1.7 4.3 0.00 0.00 0.00 89 1002.5
20260507093504 57 351 0.9 6.1 0.00 0.00 0.00 89 1002.1
20260507093004 57 107 1.7 5.2 0.00 0.00 0.00 88 1002.0
20260507092504 57 178 1.7 5.2 0.00 0.00 0.00 88 1002.0
20260507090504 57 145 0.0 1.7 0.00 0.00 0.00 88 1001.6
20260507090005 57 35 0.9 4.3 0.00 0.00 0.00 88 1001.8
20260507085503 57 183 2.6 4.3 0.00 0.00 0.00 88 1001.7